Forside
METAR-TAF:

METAR-TAF

Lufthavne :

Joliet Regional Airport

Joliet, Illinois, USA

Breddekreds: 41-31-05N, længdekreds: 088-10-31W, højde: 177 m

Aktuelle vejr

Denne rapport blev lavet for 28 minutter siden, kl. 17:15 UTC
Vind stille
Temperatur 26°C
Fugtighed 48%
Tryk 1020 hPa
Sigt: 16.1 km
skyfri

METAR: KJOT 031715Z AUTO 00000KT 10SM CLR 26/14 A3012 RMK AO2 T02610137

Tid: 12:43 (17:43 UTC)


TAF: fraværende

Vejrobservationer og prognoser fra mere end 4000 lufthavne (METAR og TAF).

De gule og røde prikker repræsenterer de meteorologiske stationer.

Flyt musen over at se navnet på stationen.

Så klik over at se vejr observationer og prognoser.

At skifte det kort: Klik på de grønne knapper med et sort kors for at zoome ind; på den grønne knap med en bindestreg for at zoome ud; eller på de grønne pile for tilstødende kort.


METAR-TAF: